�N����,����,�~����,�C��,���x,�C��,����,���ϕ���,�ő�u�ԕ���,�ő厞����,���˗�,�I�_���x,�n�����x,�ő啗���N��,DTYPE
"20/09/04","00:10",0.0,24.9,88.3,1007.6,309.0,0.6,0.9,341.2,0.00,22.9,26.4,"00:06:32",1
"20/09/04","00:20",0.0,25.0,88.6,1007.8,317.6,0.7,1.2,337.6,0.00,23.0,26.6,"00:16:00",1
"20/09/04","00:30",0.0,25.0,88.9,1007.8,306.4,0.6,1.0,308.9,0.00,23.1,26.7,"00:26:32",1
"20/09/04","00:40",0.0,25.2,89.1,1007.8,299.0,0.7,1.2,329.0,0.00,23.3,26.6,"00:38:56",1
"20/09/04","00:50",0.0,25.3,89.2,1007.8,338.3,0.6,1.1,325.3,0.00,23.4,26.7,"00:41:20",1
"20/09/04","01:00",0.0,25.2,89.2,1007.4,309.0,0.6,1.0,309.8,0.00,23.3,26.6,"00:55:04",1
"20/09/04","01:10",0.0,25.1,89.4,1007.6,288.9,0.3,0.6,271.1,0.00,23.3,26.4,"01:05:12",1
"20/09/04","01:20",0.0,25.1,89.5,1007.6,276.4,0.6,1.1,245.3,0.00,23.3,26.4,"01:18:00",1
"20/09/04","01:30",0.0,25.1,89.6,1007.6,293.2,0.5,1.1,324.9,0.00,23.3,26.5,"01:25:44",1
"20/09/04","01:40",0.0,25.2,89.6,1007.4,339.6,0.8,1.3,340.7,0.00,23.4,26.3,"01:38:32",1
"20/09/04","01:50",0.0,25.0,89.6,1007.8,308.4,0.8,1.3,340.9,0.00,23.2,26.6,"01:40:16",1
"20/09/04","02:00",0.0,24.9,89.8,1007.8,316.1,0.7,1.2,348.7,0.00,23.1,26.2,"01:57:12",1
"20/09/04","02:10",0.0,25.0,89.8,1007.8,314.2,0.6,1.2,343.7,0.00,23.2,26.3,"02:08:56",1
"20/09/04","02:20",0.0,25.1,89.8,1007.6,328.7,0.6,1.3,334.3,0.00,23.3,26.3,"02:12:24",1
"20/09/04","02:30",0.0,24.9,89.8,1007.4,192.4,0.2,0.5,273.9,0.00,23.1,26.2,"02:26:24",1
"20/09/04","02:40",0.0,24.8,89.9,1007.4,316.8,0.5,0.8,315.6,0.00,23.1,26.3,"02:33:52",1
"20/09/04","02:50",0.0,24.9,90.0,1007.4,307.7,0.7,1.2,307.2,0.00,23.2,26.4,"02:42:48",1
"20/09/04","03:00",0.0,25.1,90.0,1007.4,273.7,0.7,1.4,244.5,0.00,23.4,26.3,"02:57:44",1
"20/09/04","03:10",0.0,25.2,89.9,1007.6,305.2,0.7,1.2,357.4,0.00,23.5,26.1,"03:03:04",1
"20/09/04","03:20",0.0,25.2,89.9,1007.1,320.7,0.6,1.0,322.8,0.00,23.5,26.2,"03:10:02",1
"20/09/04","03:30",0.0,25.1,89.9,1007.4,311.2,0.6,1.0,322.7,0.00,23.4,26.3,"03:21:20",1
"20/09/04","03:40",0.0,25.2,89.9,1007.6,295.8,0.7,1.2,330.2,0.00,23.5,26.3,"03:36:48",1
"20/09/04","03:50",0.0,25.3,89.7,1007.6,354.1,0.6,1.1,340.0,0.00,23.5,26.3,"03:40:08",1
"20/09/04","04:00",0.0,25.1,89.6,1007.4,294.2,0.6,1.0,336.1,0.00,23.3,26.3,"03:51:28",1
"20/09/04","04:10",0.0,24.9,89.8,1007.8,309.4,0.7,1.0,306.6,0.00,23.1,26.3,"04:07:20",1
"20/09/04","04:20",0.0,24.9,89.9,1007.6,338.4,0.7,1.2,346.6,0.00,23.2,26.1,"04:12:48",1
"20/09/04","04:30",0.0,24.8,89.9,1007.6,285.7,0.6,1.0,317.9,0.00,23.1,26.1,"04:20:40",1
"20/09/04","04:40",0.0,24.7,90.0,1007.4,311.6,0.7,1.0,331.5,0.00,23.0,26.0,"04:37:04",1
"20/09/04","04:50",0.0,24.7,90.1,1007.4,322.6,0.6,1.0,331.3,0.00,23.0,26.1,"04:42:56",1
"20/09/04","05:00",0.0,24.7,90.1,1007.6,293.9,0.7,1.0,327.9,0.00,23.0,26.0,"04:59:52",1
"20/09/04","05:10",0.0,24.5,90.3,1007.6,308.9,0.6,0.9,329.1,0.00,22.8,26.2,"05:00:08",1
"20/09/04","05:20",0.0,24.4,90.3,1007.6,309.1,0.6,1.2,2.1,0.00,22.7,26.0,"05:17:12",1
"20/09/04","05:30",0.0,24.3,90.4,1007.6,316.6,0.8,1.3,307.8,0.00,22.7,26.0,"05:23:28",1
"20/09/04","05:40",0.0,24.1,90.6,1007.4,321.4,0.7,1.1,321.8,0.00,22.5,26.0,"05:36:00",1
"20/09/04","05:50",0.0,24.2,90.7,1007.6,330.1,0.5,1.2,327.3,0.00,22.6,25.9,"05:43:12",1
"20/09/04","06:00",0.0,24.3,90.8,1007.6,325.2,0.5,1.0,302.9,0.00,22.7,25.9,"05:57:36",1
"20/09/04","06:10",0.0,24.4,90.9,1007.6,319.5,0.5,0.8,340.8,0.00,22.9,25.8,"06:00:08",1
"20/09/04","06:20",0.0,24.5,91.0,1007.6,299.4,0.1,0.4,309.4,0.00,23.0,26.0,"06:17:52",1
"20/09/04","06:30",0.0,25.1,91.1,1007.8,337.0,0.6,1.2,337.5,0.02,23.6,25.9,"06:29:12",1
"20/09/04","06:40",0.0,25.6,91.1,1007.8,343.4,0.8,1.4,336.6,0.03,24.1,26.1,"06:35:36",1
"20/09/04","06:50",0.0,26.3,91.1,1007.6,319.1,0.5,1.4,337.5,0.05,24.8,26.0,"06:41:52",1
"20/09/04","07:00",0.0,26.7,90.7,1007.6,219.8,0.2,0.8,231.2,0.06,25.1,26.0,"06:54:56",1
"20/09/04","07:10",0.0,27.1,89.9,1008.3,8.5,0.7,1.4,12.9,0.12,25.3,26.0,"07:06:40",1
"20/09/04","07:20",0.0,27.5,88.2,1007.6,348.2,0.6,1.1,348.8,0.14,25.4,26.2,"07:13:12",1
"20/09/04","07:30",0.0,28.0,86.7,1007.4,152.5,0.3,0.9,122.6,0.09,25.6,26.3,"07:21:20",1
"20/09/04","07:40",0.0,28.0,85.2,1007.4,160.7,0.3,0.9,130.6,0.06,25.3,26.4,"07:30:56",1
"20/09/04","07:50",0.0,28.2,83.7,1007.4,121.7,0.3,1.2,340.8,0.08,25.2,26.7,"07:49:52",1
"20/09/04","08:00",0.0,28.3,82.6,1007.6,335.7,1.1,2.0,349.4,0.09,25.1,26.7,"07:55:52",1
"20/09/04","08:10",0.0,28.7,81.8,1007.6,344.6,0.6,1.7,345.1,0.13,25.3,26.7,"08:06:32",1
"20/09/04","08:20",0.0,28.6,80.5,1007.8,349.4,0.6,1.6,338.0,0.07,25.0,27.0,"08:11:44",1
"20/09/04","08:30",0.0,28.6,79.8,1007.8,348.9,0.5,1.1,342.7,0.03,24.8,26.8,"08:24:40",1
"20/09/04","08:40",0.2,28.5,79.6,1007.6,333.7,0.5,0.8,341.9,0.02,24.7,27.0,"08:31:52",1
"20/09/04","08:50",0.2,28.5,80.2,1007.6,322.6,0.3,0.9,343.7,0.03,24.8,26.9,"08:49:28",1
"20/09/04","09:00",0.2,28.2,82.3,1007.8,3.8,0.6,2.0,348.4,0.03,24.9,27.0,"08:52:08",1
"20/09/04","09:10",0.2,27.9,83.6,1008.3,333.6,0.3,0.9,342.1,0.05,24.9,26.9,"09:04:08",1
"20/09/04","09:20",0.0,27.8,84.4,1008.6,293.0,0.3,0.8,350.1,0.05,25.0,27.1,"09:11:52",1
"20/09/04","09:30",0.2,27.7,85.4,1008.6,342.2,0.5,1.4,349.3,0.04,25.1,27.0,"09:26:56",1
"20/09/04","09:40",0.2,27.6,86.2,1009.0,13.5,0.3,1.2,345.7,0.04,25.1,27.1,"09:36:00",1
"20/09/04","09:50",0.2,27.5,87.0,1009.0,11.1,0.6,1.6,348.7,0.04,25.2,27.0,"09:46:32",1
"20/09/04","10:00",0.2,27.4,87.7,1009.0,162.3,0.7,1.4,144.8,0.08,25.2,27.2,"09:51:04",1
"20/09/04","10:10",0.0,27.3,88.0,1008.8,202.3,1.2,3.1,217.9,0.09,25.2,27.2,"10:07:52",1
"20/09/04","10:20",0.0,27.3,88.2,1008.6,168.2,0.8,1.9,218.5,0.09,25.2,27.3,"10:13:12",1
"20/09/04","10:30",0.2,27.4,88.7,1009.0,202.8,1.1,2.5,229.1,0.11,25.4,27.1,"10:23:20",1
"20/09/04","10:40",0.0,27.7,88.7,1008.8,171.4,0.6,1.1,169.9,0.13,25.7,27.2,"10:30:24",1
"20/09/04","10:50",0.0,27.6,88.7,1008.6,167.2,0.7,1.7,229.4,0.12,25.6,27.3,"10:47:52",1
"20/09/04","11:00",0.2,27.7,88.7,1008.3,174.1,0.7,1.7,200.2,0.17,25.7,27.5,"10:51:52",1
"20/09/04","11:10",0.0,27.6,88.2,1008.3,192.9,1.3,3.1,200.0,0.22,25.5,27.3,"11:08:24",1
"20/09/04","11:20",0.0,27.7,87.6,1008.3,198.5,1.5,2.7,202.7,0.19,25.5,27.6,"11:16:56",1
"20/09/04","11:30",0.0,27.9,87.2,1008.1,189.3,0.8,2.1,200.4,0.14,25.6,27.6,"11:21:36",1
"20/09/04","11:40",0.0,27.7,86.3,1008.1,147.1,1.1,2.1,200.9,0.14,25.2,27.6,"11:33:20",1
"20/09/04","11:50",0.0,27.6,85.3,1008.1,155.8,0.8,1.7,123.2,0.13,24.9,27.7,"11:44:48",1
"20/09/04","12:00",0.0,27.9,84.5,1008.3,136.0,0.7,1.4,115.3,0.21,25.1,28.0,"11:58:00",1
"20/09/04","12:10",0.0,28.4,83.1,1008.3,102.7,0.7,1.7,113.3,0.36,25.3,28.1,"12:02:16",1
"20/09/04","12:20",0.0,29.0,80.4,1008.8,126.9,0.8,2.6,115.4,0.38,25.3,28.3,"12:13:28",1
"20/09/04","12:30",0.0,30.1,76.5,1009.3,61.2,0.6,1.3,72.5,0.44,25.6,28.3,"12:24:56",1
"20/09/04","12:40",0.0,30.4,73.6,1009.0,48.4,0.8,2.2,113.8,0.44,25.2,28.6,"12:34:56",1
"20/09/04","12:50",0.0,30.3,72.4,1009.3,355.6,1.0,2.4,349.2,0.31,24.8,28.8,"12:42:32",1
"20/09/04","13:00",0.0,30.2,72.7,1009.0,282.0,0.7,1.9,349.1,0.29,24.8,29.0,"12:50:24",1
"20/09/04","13:10",0.0,30.3,72.2,1009.0,145.8,1.0,3.2,122.7,0.32,24.8,29.1,"13:07:28",1
"20/09/04","13:20",0.0,30.6,72.1,1009.0,193.3,1.6,3.4,221.0,0.40,25.0,29.1,"13:11:20",1
"20/09/04","13:30",0.0,30.5,70.4,1008.8,193.8,1.5,2.9,213.6,0.37,24.5,29.2,"13:20:16",1
"20/09/04","13:40",0.0,30.7,68.6,1008.8,190.8,1.6,3.7,213.3,0.38,24.3,29.5,"13:36:16",1
"20/09/04","13:50",0.0,31.2,66.9,1009.0,162.7,1.0,2.4,107.7,0.40,24.4,29.8,"13:42:08",1
"20/09/04","14:00",0.0,31.4,66.1,1009.0,196.0,1.6,3.1,207.6,0.45,24.3,29.8,"13:52:08",1
"20/09/04","14:10",0.0,31.7,64.2,1009.0,228.5,0.7,3.2,230.5,0.37,24.1,29.9,"14:08:48",1
"20/09/04","14:20",0.0,32.1,64.1,1009.0,230.6,1.2,3.4,217.4,0.49,24.5,30.0,"14:14:56",1
"20/09/04","14:30",0.0,32.1,62.3,1009.0,190.6,1.7,3.5,219.8,0.46,24.0,30.2,"14:25:04",1
"20/09/04","14:40",0.0,32.6,61.9,1009.0,134.6,0.8,3.1,198.9,0.44,24.4,30.4,"14:36:08",1
"20/09/04","14:50",0.0,32.8,61.7,1009.0,151.6,0.7,2.7,208.5,0.41,24.5,30.5,"14:44:08",1
"20/09/04","15:00",0.0,32.9,62.1,1009.3,211.8,1.1,3.1,226.3,0.37,24.7,30.5,"14:51:28",1
"20/09/04","15:10",0.0,32.7,60.2,1008.8,125.4,0.7,1.9,22.5,0.27,24.0,30.6,"15:05:28",1
"20/09/04","15:20",0.0,32.6,61.2,1008.8,282.3,0.8,3.4,206.7,0.23,24.2,30.7,"15:16:08",1
"20/09/04","15:30",0.0,32.5,61.8,1008.3,230.9,0.7,3.5,228.7,0.31,24.3,31.0,"15:25:12",1
"20/09/04","15:40",0.0,32.7,61.3,1007.8,226.1,1.1,2.5,222.6,0.32,24.3,30.8,"15:31:52",1
"20/09/04","15:50",0.0,32.6,61.0,1008.3,291.8,1.0,2.0,346.4,0.27,24.1,30.9,"15:46:08",1
"20/09/04","16:00",0.0,32.6,61.2,1008.1,220.3,1.3,3.3,224.5,0.28,24.2,30.9,"15:58:56",1
"20/09/04","16:10",0.0,31.8,61.3,1008.1,206.8,1.6,3.6,220.4,0.12,23.5,30.7,"16:02:32",1
"20/09/04","16:20",0.0,31.9,62.1,1007.6,175.9,0.6,1.6,128.2,0.13,23.8,30.8,"16:12:56",1
"20/09/04","16:30",0.0,31.9,61.6,1007.8,218.8,0.7,3.3,200.0,0.08,23.6,30.8,"16:20:08",1
"20/09/04","16:40",0.0,31.7,62.9,1007.8,225.7,1.0,2.8,214.4,0.07,23.8,30.6,"16:32:00",1
"20/09/04","16:50",0.0,31.4,63.7,1007.6,235.6,0.8,2.1,236.1,0.05,23.7,30.4,"16:40:48",1
"20/09/04","17:00",0.0,31.3,64.4,1007.6,246.1,1.0,2.1,217.8,0.04,23.8,30.3,"16:56:32",1
"20/09/04","17:10",0.0,31.0,65.4,1007.4,240.4,0.7,1.8,220.0,0.04,23.8,30.2,"17:03:04",1
"20/09/04","17:20",0.0,30.8,66.2,1007.4,281.0,0.3,1.3,306.5,0.03,23.8,30.1,"17:15:36",1
"20/09/04","17:30",0.0,30.7,67.9,1007.1,339.3,0.3,0.8,345.3,0.02,24.1,30.1,"17:23:52",1
"20/09/04","17:40",0.0,30.3,69.8,1006.9,321.6,0.5,1.4,356.6,0.01,24.2,29.9,"17:32:00",1
"20/09/04","17:50",0.0,29.9,71.2,1006.7,280.6,0.5,0.9,299.6,0.00,24.2,29.8,"17:44:56",1
"20/09/04","18:00",0.0,29.4,72.6,1006.7,299.7,1.0,2.0,276.6,0.00,24.0,29.8,"17:59:12",1
"20/09/04","18:10",0.0,29.1,73.7,1006.4,293.4,1.2,2.7,305.9,0.00,24.0,29.7,"18:00:16",1
"20/09/04","18:20",0.0,28.8,75.0,1006.2,325.4,1.5,4.5,340.6,0.00,24.0,29.5,"18:12:08",1
"20/09/04","18:30",0.0,28.4,76.1,1006.7,310.6,1.3,2.7,333.9,0.00,23.8,29.3,"18:22:56",1
"20/09/04","18:40",0.0,28.2,77.0,1007.4,328.2,1.6,2.5,318.2,0.00,23.8,29.2,"18:38:16",1
"20/09/04","18:50",0.0,28.1,77.7,1007.1,303.4,1.2,2.0,333.4,0.00,23.9,29.2,"18:42:40",1
"20/09/04","19:00",0.0,27.9,78.4,1008.1,290.4,1.0,3.6,114.4,0.00,23.8,29.0,"18:59:04",1
"20/09/04","19:10",0.0,27.6,79.4,1008.1,104.6,0.6,1.7,107.3,0.00,23.8,29.1,"19:02:08",1
"20/09/04","19:20",0.0,27.5,80.5,1008.3,90.0,0.5,1.4,115.8,0.00,23.9,28.7,"19:11:04",1
"20/09/04","19:30",0.0,27.3,81.1,1008.1,131.1,0.2,1.0,81.6,0.00,23.8,28.7,"19:23:12",1
"20/09/04","19:40",0.0,27.1,81.8,1008.1,304.2,0.5,1.3,330.1,0.00,23.8,28.7,"19:39:52",1
"20/09/04","19:50",0.0,26.9,82.3,1008.3,283.6,0.6,1.1,312.6,0.00,23.7,28.5,"19:40:08",1
"20/09/04","20:00",0.0,26.8,82.9,1008.3,283.1,0.7,1.7,314.5,0.00,23.7,28.5,"19:58:32",1
"20/09/04","20:10",0.0,26.7,83.4,1008.1,312.0,1.1,2.0,328.1,0.00,23.7,28.4,"20:05:12",1
"20/09/04","20:20",0.0,26.5,83.8,1008.3,325.8,1.6,3.3,347.5,0.00,23.6,28.5,"20:18:08",1
"20/09/04","20:30",0.0,26.4,84.0,1008.3,323.7,1.3,2.5,343.1,0.00,23.5,28.3,"20:24:32",1
"20/09/04","20:40",0.0,26.3,84.4,1008.6,337.9,1.3,2.4,355.9,0.00,23.5,28.2,"20:32:08",1
"20/09/04","20:50",0.0,26.2,84.7,1008.6,341.3,1.2,2.1,343.3,0.00,23.5,28.1,"20:46:08",1
"20/09/04","21:00",0.0,26.0,85.2,1008.6,350.4,1.1,2.0,350.9,0.00,23.4,28.1,"20:52:48",1
"20/09/04","21:10",0.0,26.0,85.4,1008.6,336.6,1.2,2.2,301.2,0.00,23.4,28.1,"21:04:00",1
"20/09/04","21:20",0.0,25.8,85.8,1008.6,339.4,1.2,2.6,348.9,0.00,23.3,27.7,"21:13:12",1
"20/09/04","21:30",0.0,25.8,86.1,1008.6,331.6,1.3,2.5,343.2,0.00,23.3,27.8,"21:28:40",1
"20/09/04","21:40",0.0,25.8,86.3,1008.3,333.5,1.7,3.4,342.3,0.00,23.4,27.7,"21:32:16",1
"20/09/04","21:50",0.0,25.7,86.5,1008.6,333.0,1.1,2.1,306.4,0.00,23.3,27.6,"21:42:40",1
"20/09/04","22:00",0.0,25.6,86.8,1008.6,330.9,1.1,2.4,341.7,0.00,23.3,27.8,"21:58:48",1
"20/09/04","22:10",0.0,25.5,87.0,1008.6,320.1,1.5,2.9,334.7,0.00,23.2,27.5,"22:05:28",1
"20/09/04","22:20",0.0,25.5,87.3,1008.6,322.9,1.0,1.7,345.6,0.00,23.3,27.6,"22:19:28",1
"20/09/04","22:30",0.0,25.4,87.4,1008.8,312.1,0.8,2.0,350.9,0.00,23.2,27.5,"22:22:40",1
"20/09/04","22:40",0.0,25.4,87.6,1008.1,293.9,0.6,1.7,318.4,0.00,23.2,27.3,"22:38:56",1
"20/09/04","22:50",0.0,25.4,87.8,1008.8,289.7,0.7,1.6,324.1,0.00,23.3,27.4,"22:42:48",1
"20/09/04","23:00",0.0,25.5,87.9,1008.8,311.0,1.0,2.2,343.5,0.00,23.4,27.2,"22:54:16",1
"20/09/04","23:10",0.0,25.5,88.0,1009.0,313.7,0.8,1.8,350.9,0.00,23.4,27.5,"23:01:44",1
"20/09/04","23:20",0.0,25.5,88.0,1008.6,326.2,1.1,2.2,339.2,0.00,23.4,27.1,"23:11:52",1
"20/09/04","23:30",0.0,25.4,88.1,1008.8,308.9,1.1,2.4,333.9,0.00,23.3,27.2,"23:22:48",1
"20/09/04","23:40",0.0,25.4,88.2,1008.3,333.9,1.3,2.7,340.6,0.00,23.3,27.2,"23:34:48",1
"20/09/04","23:50",0.0,25.4,88.2,1008.6,341.2,1.2,2.4,340.5,0.00,23.3,27.1,"23:47:20",1
"20/09/04","24:00",0.0,25.3,88.3,1008.6,341.3,1.3,2.1,345.8,0.00,23.3,27.0,"23:52:32",1
